Hourly Data Report for September 21, 2017

All times are specified in Local Standard Time (LST). Add 1 hour to adjust for Daylight Saving Time where and when it is observed.

PENTICTON A
BRITISH COLUMBIA

49°27'45.000" N
119°36'08.000" W
344.40 m
1126146
71889
YYF

Download Data

Hourly Data (September 2017)
Hourly Data Report for September 21, 2017
Temp Definition
°C
Dew Point Temp Definition
°C
Rel Hum Definition
%
Wind Dir Definition
10's deg

Wind Spd Definition
km/h
Visibility Definition
km
Stn Press Definition
kPa
Hmdx Definition


Wind Chill Definition


Weather Definition


TIME
00:00 Legend Double Dagger 8.8 5.7 81 4 10 24.1 96.79     Rain Showers
01:00 Legend Double Dagger 8.8 5.6 80 24 4 24.1 96.83     Rain Showers
02:00 Legend Double Dagger 7.8 6.0 89 5 5 24.1 96.88     LegendNANA
03:00 Legend Double Dagger 6.7 5.8 94 34 7 24.1 96.93     LegendNANA
04:00 Legend Double Dagger 7.2 6.1 92 31 5 24.1 96.97     Rain Showers
05:00 Legend Double Dagger 7.3 5.9 91 4 7 24.1 97.03     Rain Showers
06:00 Legend Double Dagger 6.7 5.3 91 33 5 24.1 97.07     LegendNANA
07:00 Legend Double Dagger 6.9 5.4 90 35 10 24.1 97.12     Mostly Cloudy
08:00 Legend Double Dagger 9.5 6.4 81 4 4 24.1 97.14     LegendNANA
09:00 Legend Double Dagger 11.9 6.4 69 33 10 24.1 97.15     LegendNANA
10:00 Legend Double Dagger 12.6 4.6 58 31 8 24.1 97.17     Mostly Cloudy
11:00 Legend Double Dagger 13.7 4.1 52 34 9 24.1 97.18     LegendNANA
12:00 Legend Double Dagger 14.8 4.5 50 2 16 24.1 97.18     LegendNANA
13:00 Legend Double Dagger 15.5 2.2 40 1 27 24.1 97.20     Mostly Cloudy
14:00 Legend Double Dagger 14.9 3.1 45 1 14 24.1 97.23     LegendNANA
15:00 Legend Double Dagger 15.5 3.2 43 6 4 24.1 97.21     LegendNANA
16:00 Legend Double Dagger 15.6 3.0 43 0 1 24.1 97.23     Mostly Cloudy
17:00 Legend Double Dagger 14.5 3.8 48 34 9 24.1 97.26     LegendNANA
18:00 Legend Double Dagger 12.7 5.4 61 34 7 24.1 97.30     LegendNANA
19:00 Legend Double Dagger 12.2 5.8 65 33 7 24.1 97.36     Mostly Cloudy
20:00 Legend Double Dagger 10.2 4.8 69 36 8 24.1 97.40     LegendNANA
21:00 Legend Double Dagger 10.3 4.0 65 35 11 24.1 97.41     LegendNANA
22:00 Legend Double Dagger 10.3 3.9 65 10 4 24.1 97.45     Mainly Clear
23:00 Legend Double Dagger 8.8 4.1 72 36 3 24.1 97.48     LegendNANA

Notes on Data Quality.

Legend

  • E = Estimated
  • M = Missing
  • NA = Not Available
  • ‡ = Partner data that is not subject to review by the National Climate Archives
Date modified: